Temp
-10 -10 -10 -10 -9 -9 -9 -9 -9 -9 -9 -9 -8 -8 -8 -8 -8 -9 -9 -9 -8 -9 -9 -8 -8 -8 -7 -7 -7 -7 -7 -7 -7 -7 -7 -7 -8 -8 -8 -8 -8 -8 -8 -8 -8 -8 -8 -8 -8
-11 -10 -10 -10 -10 -9 -9 -9 -9 -9 -9 -9 -9 -9 -9 -9 -9 -9 -9 -9 -9 -9 -9 -9 -9 -8 -8 -8 -8 -8 -8 -8 -8 -8 -8 -8 -8 -9 -9 -8 -8 -8 -8 -8 -8 -8 -8 -8 -8
-11 -11 -11 -10 -10 -10 -10 -10 -9 -9 -9 -9 -9 -9 -9 -9 -10 -9 -9 -9 -9 -9 -9 -9 -9 -9 -8 -8 -8 -9 -9 -9 -9 -9 -9 -9 -9 -9 -9 -9 -9 -9 -8 -8 -9 -9 -9 -9 -9
-11 -11 -11 -10 -10 -11 -10 -10 -10 -10 -9 -9 -9 -10 -10 -10 -10 -10 -10 -9 -9 -10 -10 -10 -9 -9 -9 -9 -9 -9 -9 -9 -9 -9 -9 -9 -9 -9 -9 -9 -9 -9 -9 -9 -9 -9 -9 -9 -9
-11 -11 -11 -10 -11 -11 -11 -11 -11 -10 -10 -10 -10 -10 -10 -10 -11 -10 -10 -10 -10 -10 -10 -11 -10 -9 -9 -9 -9 -9 -10 -10 -10 -10 -9 -9 -9 -9 -9 -9 -9 -9 -9 -9 -9 -9 -9 -9 -9
-11 -11 -11 -11 -11 -12 -12 -11 -11 -11 -10 -10 -10 -10 -10 -10 -10 -10 -10 -10 -10 -10 -10 -11 -10 -10 -9 -9 -9 -10 -10 -10 -10 -10 -10 -10 -9 -9 -9 -9 -9 -9 -9 -9 -9 -9 -9 -9 -9
-11 -11 -11 -11 -12 -12 -12 -12 -12 -11 -11 -11 -10 -10 -10 -10 -10 -10 -10 -10 -10 -10 -11 -11 -11 -10 -10 -10 -10 -10 -11 -10 -10 -10 -10 -10 -10 -10 -9 -9 -9 -10 -10 -10 -9 -9 -9 -9 -9
-11 -11 -11 -12 -12 -12 -12 -12 -12 -12 -12 -11 -11 -10 -10 -10 -11 -11 -10 -10 -11 -11 -11 -11 -11 -11 -11 -11 -11 -11 -11 -11 -11 -11 -10 -10 -10 -10 -10 -10 -10 -10 -10 -10 -10 -10 -10 -10 -10
-11 -11 -11 -12 -12 -12 -13 -13 -12 -12 -12 -12 -11 -11 -11 -11 -10 -10 -11 -11 -11 -11 -11 -11 -11 -11 -11 -11 -12 -12 -11 -11 -11 -11 -10 -10 -10 -10 -10 -10 -10 -10 -10 -10 -10 -10 -10 -10 -10
-11 -11 -11 -12 -12 -12 -13 -13 -12 -12 -13 -12 -12 -12 -11 -11 -11 -11 -11 -11 -11 -11 -11 -11 -11 -11 -11 -11 -12 -12 -12 -11 -11 -11 -11 -11 -11 -11 -11 -10 -10 -10 -10 -10 -10 -10 -10 -10 -10
-11 -11 -12 -12 -12 -12 -13 -13 -13 -12 -12 -13 -12 -12 -12 -11 -11 -10 -11 -11 -11 -11 -12 -12 -12 -11 -11 -11 -11 -12 -12 -12 -12 -11 -11 -11 -11 -11 -11 -11 -10 -10 -10 -10 -11 -11 -11 -10 -10
-11 -12 -12 -12 -12 -12 -12 -12 -12 -11 -12 -12 -12 -12 -12 -11 -11 -11 -11 -11 -11 -11 -12 -12 -12 -11 -11 -11 -11 -12 -12 -12 -12 -12 -11 -11 -12 -11 -11 -11 -11 -11 -11 -11 -11 -11 -11 -11 -11
-11 -12 -12 -12 -12 -12 -12 -12 -12 -11 -11 -12 -12 -12 -12 -12 -11 -11 -11 -11 -11 -12 -12 -12 -12 -11 -11 -11 -12 -12 -12 -12 -12 -12 -12 -12 -12 -12 -11 -11 -11 -11 -11 -11 -11 -11 -11 -11 -11
-11 -12 -12 -12 -12 -12 -12 -12 -12 -11 -11 -11 -12 -12 -12 -12 -12 -11 -11 -12 -12 -12 -12 -12 -12 -11 -11 -11 -11 -11 -12 -13 -13 -13 -12 -12 -12 -12 -11 -11 -11 -11 -11 -11 -11 -11 -11 -11 -11
-11 -12 -12 -12 -12 -12 -12 -11 -11 -12 -12 -12 -12 -12 -12 -12 -13 -12 -11 -11 -11 -12 -12 -12 -11 -11 -11 -11 -11 -12 -12 -13 -13 -13 -13 -12 -12 -12 -11 -11 -11 -11 -11 -11 -11 -11 -11 -11 -11
-11 -11 -12 -12 -12 -12 -12 -11 -11 -11 -12 -11 -12 -12 -12 -12 -13 -13 -12 -11 -12 -12 -12 -12 -11 -11 -11 -11 -11 -12 -12 -13 -13 -13 -13 -12 -12 -12 -11 -11 -11 -11 -11 -11 -11 -11 -11 -11 -11
-12 -12 -12 -13 -13 -12 -12 -11 -11 -11 -12 -12 -11 -11 -11 -12 -12 -13 -12 -12 -12 -12 -12 -12 -12 -11 -11 -12 -12 -12 -13 -13 -13 -13 -13 -12 -12 -12 -11 -11 -11 -11 -11 -11 -11 -11 -11 -11 -11
-12 -12 -12 -12 -13 -13 -12 -11 -11 -11 -11 -11 -11 -11 -11 -11 -12 -12 -12 -12 -12 -12 -12 -12 -12 -12 -12 -12 -12 -12 -13 -13 -13 -13 -13 -12 -12 -12 -11 -11 -11 -10 -11 -11 -11 -11 -11 -11 -11
-12 -12 -12 -12 -13 -13 -13 -12 -12 -11 -11 -11 -11 -11 -11 -11 -12 -12 -12 -12 -12 -12 -12 -12 -12 -12 -12 -12 -12 -12 -13 -13 -13 -13 -13 -12 -12 -11 -11 -11 -11 -11 -11 -11 -11 -11 -11 -11 -11
-12 -12 -12 -12 -13 -13 -13 -12 -12 -12 -11 -11 -11 -11 -11 -11 -11 -12 -12 -12 -13 -12 -12 -12 -12 -12 -12 -12 -12 -12 -12 -13 -13 -13 -13 -12 -12 -12 -11 -11 -11 -11 -11 -11 -11 -11 -11 -11 -12
-13 -13 -13 -13 -14 -14 -13 -11 -12 -12 -12 -12 -11 -11 -11 -11 -11 -11 -12 -12 -13 -13 -12 -12 -12 -12 -12 -12 -12 -12 -12 -12 -13 -13 -12 -12 -12 -12 -12 -12 -11 -12 -11 -11 -11 -11 -11 -12 -13
-13 -14 -14 -13 -13 -13 -14 -11 -11 -12 -12 -12 -11 -11 -11 -11 -11 -11 -12 -12 -13 -13 -12 -12 -12 -12 -12 -12 -12 -12 -12 -12 -13 -13 -12 -12 -12 -12 -12 -12 -12 -12 -12 -12 -12 -12 -12 -13 -13
-14 -15 -15 -14 -14 -14 -13 -14 -10 -12 -12 -12 -11 -12 -11 -12 -11 -11 -12 -13 -13 -13 -13 -12 -12 -12 -12 -12 -12 -12 -12 -12 -13 -13 -13 -12 -12 -12 -12 -12 -12 -12 -12 -12 -12 -13 -13 -14 -14
-16 -16 -16 -16 -16 -15 -14 -14 -11 -12 -12 -12 -12 -12 -12 -12 -12 -12 -12 -12 -13 -13 -13 -13 -12 -12 -12 -12 -12 -12 -12 -12 -12 -13 -13 -12 -12 -12 -12 -12 -12 -12 -13 -13 -13 -14 -14 -14 -14
-17 -18 -18 -18 -17 -15 -15 -14 -12 -12 -13 -12 -12 -12 -12 -12 -12 -12 -12 -12 -13 -13 -13 -13 -12 -13 -12 -12 -13 -12 -12 -12 -12 -12 -13 -12 -12 -12 -12 -12 -13 -13 -13 -14 -14 -14 -15 -15 -15
-19 -20 -21 -21 -20 -19 -18 -14 -13 -13 -14 -13 -13 -13 -12 -12 -12 -13 -13 -13 -13 -14 -13 -13 -13 -13 -13 -13 -13 -13 -12 -12 -12 -12 -12 -12 -12 -12 -12 -13 -13 -13 -14 -14 -15 -15 -15 -15 -15
-20 -21 -22 -22 -22 -22 -20 -17 -14 -14 -15 -15 -14 -14 -13 -13 -13 -13 -14 -13 -14 -14 -13 -13 -13 -13 -13 -13 -13 -13 -13 -12 -12 -12 -12 -12 -12 -13 -13 -14 -14 -14 -15 -15 -15 -15 -15 -16 -16
-21 -21 -22 -22 -22 -22 -21 -20 -19 -18 -18 -16 -15 -14 -13 -13 -13 -14 -14 -14 -14 -14 -13 -13 -13 -13 -13 -13 -13 -13 -13 -13 -13 -13 -13 -13 -13 -14 -14 -14 -15 -15 -15 -15 -15 -16 -16 -16 -16
-20 -20 -21 -22 -22 -22 -21 -20 -20 -19 -18 -17 -16 -15 -14 -14 -14 -14 -14 -14 -14 -14 -13 -13 -13 -13 -13 -13 -13 -13 -13 -13 -13 -13 -13 -13 -14 -14 -15 -15 -15 -16 -15 -15 -16 -16 -16 -17 -17
-20 -20 -21 -21 -21 -21 -22 -21 -19 -19 -19 -18 -16 -15 -15 -14 -14 -14 -14 -14 -14 -14 -13 -13 -13 -14 -14 -14 -14 -14 -13 -13 -13 -13 -14 -14 -15 -15 -15 -16 -16 -16 -16 -16 -16 -17 -17 -17 -17
Height
5807 5809 5811 5815 5819 5819 5821 5823 5822 5824 5826 5826 5827 5828 5830 5833 5834 5837 5837 5837 5840 5842 5843 5843 5843 5843 5843 5843 5843 5842 5842 5842 5843 5843 5842 5841 5841 5842 5842 5843 5843 5844 5844 5844 5844 5845 5845 5844 5844
5802 5804 5806 5808 5812 5814 5817 5819 5819 5821 5823 5825 5825 5824 5826 5828 5830 5832 5833 5834 5835 5837 5838 5839 5839 5840 5840 5840 5840 5839 5840 5840 5840 5840 5840 5839 5839 5840 5840 5841 5840 5841 5841 5841 5841 5840 5841 5841 5840
5797 5797 5801 5802 5806 5811 5812 5814 5816 5818 5820 5822 5823 5823 5823 5825 5827 5828 5830 5831 5832 5832 5834 5834 5835 5837 5837 5837 5836 5836 5837 5837 5837 5837 5837 5836 5836 5836 5837 5838 5838 5838 5837 5837 5837 5837 5837 5836 5836
5791 5793 5795 5797 5803 5805 5807 5809 5811 5812 5815 5819 5819 5820 5822 5822 5824 5824 5825 5826 5828 5829 5830 5831 5831 5832 5833 5833 5833 5833 5833 5834 5834 5835 5834 5834 5832 5833 5834 5834 5834 5834 5834 5833 5832 5832 5832 5832 5831
5786 5788 5788 5793 5799 5802 5801 5804 5807 5809 5810 5813 5814 5816 5818 5820 5820 5821 5822 5823 5824 5825 5826 5826 5828 5828 5829 5830 5829 5830 5830 5831 5831 5832 5832 5831 5831 5830 5830 5830 5830 5830 5830 5830 5829 5828 5828 5828 5827
5779 5782 5784 5790 5793 5795 5795 5796 5801 5804 5805 5808 5809 5811 5814 5816 5817 5817 5817 5819 5820 5822 5823 5824 5824 5824 5825 5825 5826 5826 5827 5827 5828 5829 5829 5829 5828 5827 5827 5827 5826 5827 5827 5826 5825 5824 5824 5823 5822
5773 5775 5778 5784 5789 5788 5789 5791 5795 5798 5800 5802 5804 5807 5810 5811 5811 5813 5814 5815 5817 5819 5820 5820 5821 5820 5820 5821 5822 5822 5823 5824 5825 5825 5826 5826 5826 5825 5824 5823 5823 5824 5823 5822 5820 5820 5819 5818 5817
5767 5767 5772 5778 5785 5786 5784 5785 5787 5791 5793 5796 5799 5801 5804 5805 5808 5809 5810 5811 5813 5816 5817 5817 5816 5816 5817 5817 5818 5819 5819 5820 5820 5821 5821 5822 5822 5822 5822 5821 5821 5820 5819 5818 5816 5816 5816 5814 5813
5759 5759 5767 5773 5777 5782 5778 5778 5779 5782 5787 5788 5792 5795 5798 5800 5801 5803 5806 5807 5809 5811 5812 5813 5813 5813 5813 5813 5813 5814 5816 5816 5817 5817 5818 5818 5819 5819 5818 5818 5817 5816 5815 5813 5813 5812 5811 5810 5809
5752 5755 5763 5767 5769 5770 5770 5768 5770 5774 5778 5781 5784 5787 5789 5792 5794 5797 5800 5803 5805 5806 5807 5808 5808 5808 5808 5808 5809 5810 5811 5812 5813 5813 5813 5814 5815 5814 5813 5813 5812 5811 5809 5808 5807 5806 5805 5804 5803
5746 5751 5755 5760 5761 5762 5763 5763 5763 5767 5772 5776 5777 5778 5783 5785 5787 5790 5794 5797 5798 5799 5802 5802 5802 5803 5803 5803 5804 5805 5806 5808 5808 5809 5809 5809 5810 5810 5809 5808 5807 5806 5804 5803 5801 5800 5798 5797 5796
5739 5745 5749 5754 5754 5755 5757 5757 5757 5760 5767 5769 5771 5773 5777 5780 5783 5786 5788 5791 5792 5793 5796 5797 5798 5798 5798 5799 5799 5799 5801 5803 5803 5804 5804 5804 5806 5805 5804 5803 5802 5800 5799 5797 5795 5793 5792 5791 5789
5732 5738 5740 5745 5747 5749 5750 5752 5753 5755 5759 5762 5764 5767 5770 5774 5776 5779 5782 5785 5788 5789 5789 5790 5791 5792 5792 5794 5793 5793 5794 5797 5798 5798 5798 5799 5800 5800 5799 5798 5797 5795 5793 5791 5790 5788 5786 5785 5784
5727 5729 5731 5735 5741 5743 5743 5747 5744 5755 5752 5755 5758 5760 5763 5766 5770 5773 5776 5779 5782 5783 5783 5783 5785 5785 5786 5788 5788 5789 5790 5792 5792 5792 5793 5793 5794 5794 5793 5792 5791 5789 5787 5786 5785 5783 5781 5779 5778
5720 5721 5723 5727 5732 5734 5735 5738 5742 5746 5745 5745 5750 5753 5756 5759 5762 5766 5769 5773 5776 5776 5777 5778 5778 5779 5780 5782 5782 5784 5785 5785 5786 5787 5787 5788 5788 5788 5787 5787 5785 5784 5782 5781 5780 5778 5775 5773 5770
5713 5713 5716 5719 5721 5724 5724 5731 5734 5735 5736 5740 5741 5746 5748 5752 5756 5758 5762 5767 5769 5770 5770 5771 5772 5773 5774 5776 5777 5779 5779 5780 5780 5781 5781 5782 5782 5782 5781 5780 5779 5777 5777 5776 5774 5771 5769 5767 5763
5705 5706 5706 5709 5711 5712 5714 5715 5723 5724 5728 5731 5734 5737 5740 5744 5749 5752 5755 5759 5762 5763 5764 5765 5766 5767 5768 5769 5771 5771 5773 5774 5775 5775 5776 5776 5776 5776 5775 5774 5773 5771 5770 5769 5767 5764 5761 5759 5755
5695 5695 5697 5697 5702 5701 5704 5704 5712 5715 5719 5724 5727 5729 5733 5736 5740 5743 5745 5751 5754 5756 5757 5758 5759 5761 5762 5764 5764 5765 5767 5767 5768 5770 5770 5770 5770 5769 5768 5767 5765 5763 5762 5762 5760 5757 5754 5751 5747
5685 5686 5687 5688 5689 5691 5693 5695 5701 5705 5708 5714 5719 5722 5725 5728 5731 5734 5737 5743 5746 5749 5750 5751 5752 5754 5756 5757 5757 5759 5760 5761 5762 5764 5764 5764 5763 5762 5762 5760 5758 5757 5755 5754 5751 5748 5745 5742 5738
5676 5677 5677 5678 5678 5677 5681 5682 5685 5691 5698 5704 5709 5713 5716 5719 5721 5724 5729 5733 5737 5741 5743 5744 5745 5747 5749 5750 5751 5752 5753 5755 5756 5756 5757 5757 5756 5755 5754 5753 5751 5750 5748 5745 5742 5738 5735 5732 5728
5665 5665 5665 5665 5663 5664 5664 5668 5675 5683 5685 5690 5697 5703 5706 5711 5712 5714 5720 5725 5729 5732 5736 5738 5739 5740 5742 5743 5744 5746 5748 5748 5749 5749 5750 5749 5749 5748 5747 5746 5744 5742 5738 5736 5733 5729 5725 5720 5717
5652 5651 5649 5650 5649 5652 5654 5651 5663 5669 5676 5682 5688 5693 5697 5701 5704 5705 5710 5716 5721 5724 5727 5730 5732 5734 5735 5737 5738 5739 5741 5741 5742 5742 5742 5742 5742 5741 5740 5738 5736 5733 5729 5726 5722 5718 5714 5710 5706
5637 5635 5633 5634 5634 5635 5643 5637 5648 5660 5667 5672 5678 5683 5687 5691 5696 5697 5702 5707 5712 5716 5720 5723 5724 5727 5728 5729 5731 5733 5733 5734 5734 5734 5734 5735 5734 5733 5731 5729 5727 5724 5720 5716 5712 5707 5702 5698 5694
5620 5620 5618 5617 5617 5617 5628 5623 5638 5644 5657 5663 5666 5670 5675 5680 5684 5688 5694 5698 5702 5707 5711 5715 5717 5719 5721 5722 5724 5726 5726 5726 5726 5726 5727 5727 5726 5725 5723 5720 5717 5713 5710 5705 5700 5695 5691 5686 5682
5605 5605 5603 5601 5600 5603 5609 5610 5628 5634 5641 5647 5653 5656 5663 5668 5672 5677 5684 5690 5695 5700 5703 5708 5710 5712 5714 5715 5717 5718 5718 5718 5718 5719 5719 5718 5718 5716 5713 5711 5707 5703 5699 5694 5689 5684 5680 5675 5669
5589 5590 5589 5585 5585 5586 5591 5592 5609 5618 5624 5631 5638 5643 5649 5656 5661 5667 5673 5679 5686 5691 5695 5700 5702 5704 5706 5708 5710 5711 5710 5710 5711 5711 5710 5710 5709 5707 5704 5700 5697 5693 5688 5683 5679 5674 5668 5663 5657
5582 5578 5586 5576 5576 5573 5574 5579 5593 5598 5608 5612 5623 5631 5636 5644 5650 5657 5664 5671 5677 5682 5688 5692 5695 5697 5699 5701 5702 5703 5703 5703 5703 5702 5702 5701 5699 5697 5694 5690 5687 5682 5677 5673 5668 5662 5657 5651 5644
5576 5572 5572 5569 5566 5563 5566 5570 5575 5585 5591 5599 5611 5620 5623 5631 5640 5649 5656 5664 5670 5674 5680 5684 5687 5690 5692 5694 5695 5696 5696 5695 5695 5694 5694 5693 5691 5688 5684 5681 5676 5671 5667 5662 5656 5651 5644 5638 5630
5567 5564 5563 5562 5561 5557 5558 5563 5572 5576 5581 5589 5598 5607 5614 5622 5631 5642 5651 5658 5664 5668 5672 5676 5681 5684 5685 5686 5687 5688 5688 5687 5687 5687 5686 5684 5681 5678 5675 5671 5666 5661 5655 5650 5644 5638 5631 5624 5615
5559 5556 5552 5548 5551 5550 5549 5549 5563 5568 5574 5579 5588 5598 5608 5618 5625 5634 5643 5651 5657 5662 5666 5670 5674 5676 5678 5678 5679 5680 5680 5680 5679 5678 5677 5675 5672 5669 5665 5660 5655 5650 5644 5638 5632 5625 5617 5609 5600
Wind_Speed
34 33 31 29 27 24 20 20 23 23 23 23 23 24 24 22 21 23 20 19 17 16 17 17 17 17 16 17 16 17 17 17 15 14 13 12 11 11 11 12 14 16 17 19 20 21 21 21 22
33 36 35 31 31 27 24 22 24 23 21 22 24 26 25 24 22 21 21 20 19 17 16 18 19 18 18 17 17 17 16 15 14 12 12 11 10 10 11 11 13 17 19 20 21 21 21 21 21
27 36 38 37 32 26 27 25 25 23 22 20 22 27 26 25 25 23 22 21 20 19 18 19 20 20 20 19 17 16 15 15 14 11 10 10 10 11 12 13 12 12 13 16 20 21 21 21 22
27 28 37 40 31 29 29 28 27 26 23 20 22 26 26 24 26 26 26 25 21 20 20 20 21 21 20 18 18 16 16 14 13 12 11 12 13 12 12 12 15 16 17 16 16 19 23 26 27
32 29 28 31 34 27 30 31 28 27 26 23 22 25 26 25 26 28 26 25 22 22 21 22 22 21 19 17 17 18 17 15 13 12 12 11 11 12 12 13 15 17 19 20 21 22 23 25 26
37 34 32 22 22 34 36 34 30 29 29 27 26 25 25 27 26 27 26 24 24 22 21 22 21 20 19 18 18 18 18 17 15 13 12 11 11 12 12 13 14 17 19 20 22 23 25 27 29
38 38 36 29 23 28 33 39 34 32 33 31 30 27 26 27 27 27 23 22 23 20 20 19 19 20 20 20 20 20 19 19 18 14 13 12 12 11 10 10 10 12 14 16 19 21 23 24 26
38 40 39 32 27 27 30 32 37 36 35 34 32 30 26 28 29 27 27 23 20 19 20 20 20 20 21 21 21 22 21 21 19 16 16 15 14 13 13 15 15 18 18 20 21 22 23 24 25
36 40 34 30 30 27 33 36 36 36 38 37 34 31 29 29 30 30 28 24 20 19 19 22 20 17 19 21 22 23 23 22 20 19 18 17 17 16 17 19 20 23 26 28 28 28 28 28 28
35 34 26 24 27 29 35 41 42 38 39 38 36 35 34 31 31 31 29 24 21 21 21 20 22 21 20 21 24 24 24 24 23 22 21 20 20 18 20 23 25 29 31 34 37 35 32 34 33
37 35 29 27 30 30 33 38 42 41 37 38 40 40 37 35 33 31 29 25 25 25 22 24 25 24 24 23 22 25 25 25 25 25 24 22 21 21 22 25 29 32 34 36 36 35 35 36 35
41 39 36 31 34 34 34 37 39 37 35 37 40 42 38 36 33 30 29 27 28 29 25 25 25 28 27 24 23 22 26 26 26 27 27 25 22 23 25 28 30 33 36 34 32 30 31 29 31
36 36 42 38 37 37 36 35 35 34 33 36 37 40 40 38 36 32 30 27 27 27 27 29 29 31 31 27 24 22 23 25 25 29 29 26 25 27 29 30 31 32 32 30 25 23 24 27 28
33 35 35 43 40 39 38 35 39 28 33 34 34 36 40 39 38 36 32 27 25 27 27 30 31 34 32 29 25 23 20 22 24 26 28 28 27 27 29 29 30 31 30 25 24 26 28 30 31
32 35 35 37 40 42 43 42 39 34 37 38 34 32 36 41 40 39 36 29 25 26 30 27 30 34 32 30 26 24 22 22 23 25 26 26 27 26 28 29 29 31 28 26 27 28 30 33 35
34 34 35 36 39 45 48 45 40 40 41 40 40 33 34 37 40 41 39 32 28 28 28 31 30 31 32 30 27 24 25 23 24 24 25 26 26 26 27 29 30 32 31 30 30 32 34 36 39
34 34 35 38 42 46 50 54 48 47 43 42 42 38 35 34 36 41 41 36 33 31 28 31 32 31 31 29 27 25 26 26 25 25 25 25 26 26 28 31 33 34 31 31 33 34 37 40 42
36 38 39 39 43 49 50 55 52 50 46 43 45 42 37 36 36 40 42 40 37 34 31 30 32 29 29 28 28 26 26 29 27 26 25 27 28 28 31 33 35 30 29 33 35 37 38 40 42
39 41 44 44 43 49 53 53 52 52 51 47 45 43 41 37 37 40 40 40 40 35 34 32 33 31 26 29 29 28 29 31 28 26 27 28 29 30 31 32 29 29 31 34 38 39 39 41 43
42 44 47 48 47 48 51 54 56 54 52 49 49 48 45 42 41 41 39 38 41 39 35 33 33 34 30 28 31 29 29 31 29 29 29 30 31 31 31 31 32 33 35 38 40 40 42 45 44
46 46 48 51 51 52 53 50 57 54 54 53 51 49 48 46 45 45 39 39 38 41 37 34 35 35 35 32 30 29 29 30 32 31 31 33 33 34 34 35 37 39 39 42 42 43 46 46 45
51 52 53 55 56 55 54 56 52 56 54 53 51 51 51 45 45 48 41 39 38 41 42 36 37 34 36 34 30 29 30 30 31 33 34 36 37 37 38 39 42 42 44 44 44 46 47 45 44
55 54 56 56 58 58 56 61 51 50 49 50 48 49 50 49 47 48 43 41 42 41 41 38 38 37 33 34 32 31 32 31 32 33 36 38 38 40 41 43 44 46 47 46 47 48 46 44 46
56 56 58 60 61 65 60 65 52 53 47 45 48 48 48 48 48 48 45 42 44 41 41 39 40 38 35 32 32 33 33 32 32 34 36 38 40 43 43 45 46 48 47 47 48 47 46 47 49
54 53 55 59 63 66 64 66 56 54 46 47 46 51 50 50 51 46 43 41 41 39 40 39 40 38 36 33 32 32 31 32 34 36 37 39 42 43 45 46 48 47 48 48 47 47 48 50 53
52 51 50 52 59 63 63 68 59 58 54 48 42 46 48 50 49 46 42 41 40 40 40 40 41 38 37 35 34 33 32 33 35 37 39 41 43 45 46 47 46 47 48 46 48 49 51 54 57
34 42 39 44 45 47 55 67 65 64 56 52 46 42 47 46 46 42 42 43 42 40 38 41 40 39 36 35 34 34 34 35 36 39 41 42 44 45 45 45 47 46 46 48 49 52 54 57 60
31 33 31 36 44 48 46 44 46 49 47 47 43 45 47 48 45 42 42 42 42 41 39 39 40 38 36 35 34 34 34 35 37 40 42 42 42 42 43 45 45 45 47 50 52 55 57 60 65
37 36 34 37 44 45 45 40 31 30 27 33 36 44 47 45 40 40 37 40 41 41 39 39 39 38 36 34 34 35 36 36 38 38 38 40 39 42 44 44 45 47 50 53 56 58 62 63 64
35 39 42 41 36 36 37 41 31 30 23 31 35 41 38 36 38 40 38 40 41 41 39 39 38 37 35 34 34 35 36 36 36 36 38 38 41 42 43 44 47 50 54 56 59 61 60 64 70
Wind_Direction
243 244 245 244 244 243 244 245 250 251 248 242 241 244 253 258 265 265 263 264 261 263 263 268 272 273 279 288 290 294 295 295 300 302 299 300 297 290 287 285 279 275 273 274 274 275 277 278 276
244 242 243 242 243 242 242 245 252 257 254 251 242 240 244 251 255 261 264 264 264 266 264 268 271 275 278 282 286 287 289 291 293 294 292 286 287 283 289 293 289 280 274 273 271 272 273 274 274
253 243 241 241 242 242 242 242 248 256 257 256 254 247 244 247 250 253 260 265 263 262 267 269 274 276 279 280 278 279 282 286 289 291 292 297 290 290 283 282 290 299 296 287 279 276 273 272 273
254 253 246 242 242 241 243 241 243 248 253 255 252 250 249 242 249 248 248 251 252 255 263 269 272 275 277 277 275 274 274 277 280 284 289 293 297 293 283 280 277 281 285 286 287 283 278 275 275
250 251 250 246 241 242 245 244 242 247 250 250 250 254 248 245 245 251 253 253 249 248 254 262 267 271 273 273 270 269 271 272 273 277 283 289 290 294 296 291 286 281 279 280 282 281 281 282 282
247 251 251 250 243 241 246 246 243 244 248 246 248 250 253 249 251 250 251 250 246 248 251 256 261 266 269 268 264 261 262 263 263 267 276 279 283 285 285 283 284 284 282 283 283 283 283 283 282
249 251 251 245 238 244 244 246 246 241 244 242 245 250 254 254 254 256 252 246 245 248 246 250 257 262 264 264 258 257 258 261 260 264 267 269 273 273 275 281 289 297 300 300 298 294 294 292 290
250 251 250 247 245 247 252 252 248 244 243 243 243 246 248 254 258 256 254 245 239 243 247 247 253 264 268 264 259 256 256 258 260 262 263 260 261 265 271 276 285 291 296 299 303 302 299 297 295
254 254 253 250 245 242 248 251 250 245 241 243 241 242 243 246 253 254 249 245 241 239 241 248 257 264 271 268 257 256 256 257 258 262 262 261 261 264 270 276 285 291 299 300 299 292 292 293 294
255 256 253 243 237 232 235 244 248 244 238 240 241 240 238 236 243 250 250 245 244 244 243 250 253 264 269 270 260 252 255 256 259 259 263 263 264 267 274 283 292 297 301 302 299 296 292 291 293
257 257 251 243 233 230 234 242 248 251 248 243 241 240 239 238 236 242 248 243 238 241 243 247 252 258 262 268 269 256 256 257 258 260 261 265 268 274 280 287 293 296 298 298 300 298 297 294 289
259 258 253 245 235 237 240 245 249 253 249 247 245 244 243 242 240 240 245 244 239 239 240 248 254 258 263 267 267 262 250 258 260 261 260 265 274 278 282 288 291 296 300 302 300 299 295 297 293
264 262 254 249 243 244 243 245 253 255 257 248 248 245 243 242 242 241 242 245 246 247 244 242 244 252 258 263 266 260 250 255 264 262 264 268 273 277 282 287 292 296 298 298 297 300 300 296 296
268 265 261 250 249 247 246 245 251 260 267 261 253 249 243 243 244 243 242 240 243 245 244 242 245 248 254 258 264 257 253 257 262 265 266 269 272 275 282 286 290 295 295 291 293 294 301 300 298
272 268 263 257 250 250 248 246 254 252 255 261 255 252 247 242 243 244 242 239 236 244 246 245 245 248 252 255 261 257 251 255 260 264 267 270 271 274 280 286 288 293 290 285 287 292 298 301 299
276 279 269 260 253 249 249 244 248 252 253 254 258 248 245 244 243 247 246 243 240 239 241 243 247 254 258 258 263 257 251 254 256 261 264 268 270 272 279 281 286 291 286 281 287 293 296 296 297
279 280 272 260 255 251 246 246 242 247 252 250 252 253 248 246 244 246 248 245 247 244 244 242 247 253 253 255 261 254 251 254 255 259 262 266 267 272 276 280 285 287 286 282 286 291 294 295 296
274 275 277 272 254 253 249 248 245 248 249 250 250 251 249 249 247 244 248 245 247 248 251 251 245 249 252 251 257 253 251 250 251 255 260 264 266 272 275 280 286 285 282 285 289 291 294 295 296
274 276 278 276 267 255 253 251 250 247 249 247 247 250 248 247 247 245 247 245 245 248 250 252 249 249 248 246 253 252 252 248 249 253 259 263 267 270 278 287 286 285 286 289 292 293 296 297 298
273 276 278 276 269 265 254 250 248 246 245 245 246 249 248 243 245 245 247 243 240 242 247 253 254 250 250 250 249 254 259 253 251 255 261 264 268 274 280 286 286 284 288 292 294 295 298 299 298
274 273 272 271 266 265 262 257 247 248 246 243 244 247 250 241 241 245 245 244 241 239 242 248 254 254 249 252 254 255 258 255 250 255 261 265 270 275 279 285 287 286 292 295 295 297 297 297 296
274 272 269 269 266 264 260 264 250 246 248 248 245 245 247 243 239 246 244 244 243 240 240 244 250 253 248 250 254 255 256 257 257 257 262 266 270 276 280 284 286 289 293 294 295 297 296 296 295
274 272 270 268 266 263 261 260 259 247 245 248 247 245 245 245 244 245 243 237 240 242 239 241 248 251 251 249 252 256 257 256 257 259 262 267 272 277 280 284 287 290 293 294 296 296 296 297 297
270 267 266 264 262 261 260 259 252 257 245 242 246 243 241 243 245 245 242 235 237 241 238 239 245 248 253 255 253 254 254 256 260 262 265 271 275 278 281 284 287 291 293 296 297 297 299 299 298
269 267 264 262 260 263 260 257 256 253 250 243 239 243 242 244 243 241 239 235 234 239 236 238 244 247 250 253 251 254 255 258 263 266 269 271 274 277 281 285 289 293 295 297 298 299 299 299 299
261 258 258 263 262 262 259 253 251 249 250 242 239 239 240 239 243 238 231 227 226 231 232 237 242 246 248 251 252 254 258 261 264 268 270 271 275 279 283 287 291 294 297 298 298 300 300 299 299
270 265 262 261 260 264 261 254 247 247 245 242 236 231 234 236 238 233 225 223 219 226 230 237 242 245 248 250 253 255 260 263 265 268 271 274 277 282 285 289 293 295 297 298 299 300 299 299 299
283 271 261 262 259 259 263 266 264 258 253 244 235 226 229 231 231 229 222 219 218 221 228 237 244 247 250 251 254 257 261 265 267 269 272 277 281 285 289 292 293 296 298 299 300 299 299 300 300
284 280 271 258 258 263 264 260 257 247 229 222 215 216 222 223 221 218 216 218 218 222 227 237 245 247 249 250 253 257 261 266 269 274 278 282 286 288 290 292 296 297 299 299 300 301 301 303 304
277 277 267 260 265 267 272 247 242 237 220 204 202 210 213 213 213 208 211 212 218 225 230 236 243 247 248 250 254 259 263 268 273 277 282 286 287 289 292 295 297 298 299 301 302 304 304 305 306